Date,TemperatureHighF,TemperatureAvgF,TemperatureLowF,DewpointHighF,DewpointAvgF,DewpointLowF,HumidityHigh,HumidityAvg,HumidityLow,PressureMaxIn,PressureMinIn,WindSpeedMaxMPH,WindSpeedAvgMPH,GustSpeedMaxMPH,PrecipitationSumIn
2013-1-1,36.3,20.3,10.4,16.2,8.0,-0.6,87,60,40,0.00,40.00,9,-74,11,0.00
2013-1-2,38.7,24.1,15.3,12.6,4.4,-3.5,56,43,25,0.00,40.00,11,-210,11,0.00
2013-1-3,44.1,23.1,7.2,7.7,-7.2,-20.4,55,31,9,0.00,40.00,11,-567,12,0.00
2013-1-4,54.9,31.3,18.3,18.9,-0.8,-15.7,45,30,7,0.00,40.00,11,-595,11,0.04
2013-1-5,45.1,28.6,19.2,16.7,7.4,1.2,50,41,30,0.00,40.00,17,-464,17,0.00
2013-1-6,56.7,33.0,17.8,10.9,-0.7,-19.1,48,28,6,0.00,40.00,8,-327,8,0.00
2013-1-7,59.2,38.8,26.1,20.3,0.9,-14.3,65,26,6,0.00,40.00,10,-1,11,0.00
2013-1-8,53.4,41.6,30.0,19.4,13.4,4.1,47,32,16,0.00,40.00,28,5,28,0.00
2013-1-9,63.9,39.9,25.3,23.5,8.4,-11.6,53,35,5,0.00,40.00,12,-1,12,0.00
2013-1-10,45.7,33.9,23.9,22.3,13.5,7.0,51,43,28,0.00,40.00,15,2,15,0.00
2013-1-11,38.7,25.1,7.5,22.3,10.0,-14.3,91,58,10,0.00,40.00,22,1,22,0.00
2013-1-12,21.0,7.7,-0.8,8.6,-0.4,-10.1,86,70,55,0.00,40.00,11,-22,11,0.00
2013-1-13,22.5,6.1,-3.6,6.6,-7.0,-15.7,59,54,46,0.00,40.00,9,-16,9,0.00
2013-1-14,26.1,7.4,-3.5,6.1,-8.2,-17.7,56,48,41,0.00,40.00,10,-303,10,0.00
2013-1-15,34.0,18.6,-2.9,11.1,-1.1,-19.1,56,42,31,0.00,40.00,9,-573,9,0.00
2013-1-16,60.3,38.1,24.3,23.9,15.1,6.4,54,41,12,0.00,40.00,11,-439,11,0.00
2013-1-17,56.3,34.4,20.5,25.2,12.6,-0.6,59,44,10,0.00,40.00,11,-236,11,0.00
2013-1-18,63.0,47.3,27.7,12.9,-8.0,-15.2,44,12,5,0.00,40.00,31,3,31,0.00
2013-1-19,65.3,44.7,29.1,7.9,-9.4,-17.1,34,11,4,0.00,40.00,20,4,20,0.00
2013-1-20,54.3,34.1,18.5,10.8,-0.8,-15.3,63,29,7,0.00,40.00,13,-40,15,0.00
2013-1-21,59.7,36.7,14.7,19.2,-1.9,-14.3,70,30,6,0.00,40.00,13,-43,13,0.00
2013-1-22,67.1,48.4,30.0,-7.8,-11.1,-16.4,12,8,4,0.00,40.00,26,-245,26,0.00
2013-1-23,64.6,51.0,34.9,11.7,-9.8,-13.9,37,8,4,0.00,40.00,20,-834,20,0.00
2013-1-24,68.4,46.6,28.2,23.4,-1.2,-15.2,40,17,4,0.00,40.00,9,-716,10,0.00
2013-1-25,60.8,41.6,31.1,32.7,22.4,16.2,65,47,31,0.00,40.00,3,-992,3,0.00
2013-1-26,58.6,41.5,29.8,32.0,25.0,18.0,77,53,35,0.00,40.00,3,-996,3,0.00
2013-1-27,65.5,43.5,31.3,36.9,26.5,-6.5,87,56,6,0.00,40.00,10,-926,13,0.00
2013-1-28,53.1,34.4,23.4,32.4,21.7,12.6,98,62,39,0.00,40.00,16,-887,16,0.00
2013-1-29,41.7,24.4,10.4,22.5,10.8,-14.3,97,60,15,0.00,40.00,13,-625,13,0.04
2013-1-30,46.8,26.8,6.4,18.5,5.9,-9.6,54,41,28,0.00,40.00,25,-484,25,0.00
2013-1-31,51.8,34.9,18.7,24.3,14.2,-11.2,86,48,7,0.00,40.00,28,-278,28,0.00
2013-2-1,53.2,35.4,21.0,24.1,12.0,-12.1,81,46,8,0.00,40.00,29,-744,30,0.00
2013-2-2,62.8,38.9,23.5,28.9,13.7,-10.8,74,43,5,0.00,40.00,11,-482,11,0.00
2013-2-3,54.0,37.4,25.5,21.6,3.0,-15.2,48,28,7,0.00,40.00,12,2,14,0.00
2013-2-4,61.3,41.7,26.4,16.2,-5.9,-17.9,36,15,5,0.00,40.00,21,1,21,0.00
2013-2-5,62.2,43.0,27.5,19.8,7.5,-11.6,41,26,5,0.00,40.00,15,-275,15,0.00
2013-2-6,53.1,40.6,32.5,32.0,22.0,12.6,90,50,31,0.00,40.00,8,-832,8,0.00
2013-2-7,53.4,34.3,20.7,30.2,12.7,-11.0,87,48,7,0.00,40.00,15,-585,15,0.00
2013-2-8,60.4,34.6,19.9,10.6,-4.3,-17.9,44,23,6,0.00,40.00,11,-561,11,0.00
2013-2-9,46.4,29.2,20.3,28.0,15.3,-6.9,95,60,24,0.00,40.00,11,-422,11,0.00
2013-2-10,36.7,27.0,16.2,20.8,10.9,4.6,93,53,31,0.00,40.00,22,-50,22,0.00
2013-2-11,36.0,20.1,12.0,18.7,11.5,6.8,89,70,48,0.00,40.00,10,-283,12,0.00
2013-2-12,50.9,27.4,9.1,18.5,-2.1,-20.0,80,40,8,0.00,40.00,12,-92,13,0.00
2013-2-13,53.1,34.3,18.5,18.9,0.2,-14.3,55,29,7,0.00,40.00,19,-27,20,0.00
2013-2-14,35.8,24.7,18.0,21.0,14.5,6.1,85,66,41,0.00,40.00,17,-18,17,0.00
2013-2-15,48.9,27.8,14.0,21.6,7.4,-15.0,80,52,8,0.00,40.00,30,-44,34,0.04
2013-2-16,65.8,45.0,19.4,19.4,-0.1,-13.2,72,22,4,0.00,40.00,26,6,27,0.00
2013-2-17,68.2,46.4,30.0,15.3,-8.5,-15.5,39,11,4,0.00,40.00,30,6,30,0.00
2013-2-18,49.6,31.0,17.8,19.0,2.2,-20.2,74,36,8,0.00,40.00,23,-286,23,0.00
2013-2-19,49.6,28.2,14.7,19.0,5.7,-11.9,59,41,8,0.00,40.00,10,-728,10,0.00
2013-2-20,43.0,25.8,14.7,32.5,14.6,6.6,94,65,38,0.00,40.00,13,-723,13,0.00
2013-2-21,34.7,21.4,12.6,18.1,14.0,9.0,95,75,48,0.00,40.00,8,-743,8,0.10
2013-2-22,42.4,24.3,10.6,20.7,13.1,3.9,92,65,41,0.00,40.00,6,-936,6,0.19
2013-2-23,46.0,28.9,12.6,26.1,13.3,2.3,90,53,38,0.00,40.00,14,-572,14,0.08
2013-2-24,30.4,25.8,19.8,26.1,21.3,15.4,96,83,66,0.00,40.00,23,6,24,0.00
2013-2-25,48.7,25.4,8.4,21.4,12.6,3.2,86,62,31,0.00,40.00,11,2,11,0.04
2013-2-26,52.3,29.2,16.7,29.5,15.2,7.2,87,57,40,0.00,40.00,23,6,27,0.08
2013-2-27,46.8,27.2,12.0,20.3,5.8,-12.1,70,44,9,0.00,40.00,14,4,14,0.00
2013-2-28,48.7,30.8,14.4,18.7,3.4,-12.5,65,36,8,0.00,40.00,15,3,16,0.00
2013-3-1,46.4,34.7,23.0,23.2,15.8,-11.4,57,46,12,0.00,40.00,16,0,16,0.00
2013-3-2,64.2,44.9,30.2,31.8,23.2,15.8,57,44,25,0.00,40.00,10,2,11,0.00
2013-3-3,67.3,51.8,38.1,27.1,21.2,-12.3,51,32,4,0.00,40.00,29,6,30,0.00
2013-3-4,27.5,18.8,15.1,13.3,8.4,1.2,81,65,38,30.07,30.07,19,-78,19,0.00
2013-3-5,57.7,27.7,7.0,24.4,9.5,-11.6,79,56,6,30.71,30.01,11,2,11,0.09
2013-3-6,59.2,38.2,20.5,33.1,23.8,14.5,82,59,28,30.71,30.47,13,3,13,0.00
2013-3-7,69.4,47.4,31.5,35.6,26.0,12.4,69,46,12,30.62,30.47,12,4,13,0.00
2013-3-8,55.9,39.3,31.1,34.7,28.2,20.7,91,66,44,30.62,30.32,12,-2,13,0.00
2013-3-9,38.7,31.9,21.4,32.7,24.9,8.6,96,76,52,30.68,30.30,20,5,20,0.00
2013-3-10,60.4,35.3,12.6,24.8,14.8,3.4,68,46,12,30.68,30.59,13,3,20,0.12
2013-3-11,59.7,43.1,28.4,28.4,20.0,5.9,95,43,17,30.71,30.50,26,2,27,0.00
2013-3-12,36.9,29.0,22.8,27.0,23.0,18.5,94,79,57,30.83,30.71,12,4,13,0.04
2013-3-13,69.4,45.4,27.3,39.2,29.0,22.8,90,56,31,30.83,30.74,13,0,13,0.09
2013-3-14,77.4,57.3,41.0,32.7,19.3,-19.7,44,28,2,30.86,30.71,20,4,20,0.00
2013-3-15,81.7,61.7,48.0,26.1,2.2,-19.8,38,14,2,30.71,30.50,24,6,25,0.00
2013-3-16,62.6,46.3,36.0,36.3,28.3,22.3,72,50,32,30.65,30.47,13,3,15,0.00
2013-3-17,59.2,40.7,29.8,31.5,19.9,-15.0,70,46,6,30.47,30.24,32,5,32,0.00
2013-3-18,53.1,38.0,21.9,16.9,-4.8,-20.4,40,18,7,30.56,30.44,30,3,30,0.00
2013-3-19,61.5,43.2,21.6,14.0,-7.9,-15.0,57,14,5,30.89,30.50,22,6,26,0.00
2013-3-20,56.7,34.8,17.2,28.9,16.6,7.2,74,49,29,30.89,30.41,11,2,12,0.00
2013-3-21,57.7,42.7,26.2,36.1,14.1,-16.6,72,36,7,30.44,30.27,30,5,30,0.00
2013-3-22,48.9,29.8,21.4,27.9,16.8,3.0,95,61,35,30.53,30.38,17,5,19,0.00
2013-3-23,37.4,20.9,8.1,20.7,11.1,-3.3,90,67,45,30.71,30.50,23,5,23,0.00
2013-3-24,52.9,21.2,2.1,20.1,5.4,-9.0,87,53,13,30.74,30.62,11,2,11,0.00
2013-3-25,47.5,25.4,11.1,22.1,11.8,6.4,87,59,33,30.80,30.71,14,3,14,0.04
2013-3-26,54.9,33.8,15.8,28.9,16.5,3.4,69,50,34,30.74,30.53,13,3,13,0.00
2013-3-27,58.8,41.2,27.9,37.0,28.6,20.1,90,63,41,30.71,30.59,13,3,13,0.00
2013-3-28,68.4,46.9,30.7,37.2,30.3,26.4,89,57,28,30.74,30.62,17,-1,17,0.00
2013-3-29,69.3,50.9,37.6,36.3,29.3,23.5,69,46,25,30.74,30.65,17,3,17,0.00
2013-3-30,70.5,47.6,34.5,39.0,29.9,-10.3,95,55,5,30.80,30.62,24,1,26,0.00
2013-3-31,74.3,51.1,32.5,38.8,24.7,-19.7,97,49,2,30.80,30.56,13,4,16,0.00
2013-4-1,57.6,40.3,25.3,34.9,27.4,20.1,92,62,41,30.74,30.62,13,0,13,0.00
2013-4-2,40.3,36.2,34.0,36.1,33.6,30.7,98,90,72,30.74,30.62,11,4,13,0.20
2013-4-3,66.4,46.7,34.3,41.5,34.7,27.3,98,68,35,30.74,30.62,14,4,17,0.17
2013-4-4,74.8,54.3,35.8,39.6,30.7,19.4,75,44,14,30.77,30.62,16,4,17,0.00
2013-4-5,75.2,56.7,45.5,34.3,17.7,-19.7,57,31,2,30.62,30.38,35,5,35,0.00
2013-4-6,69.8,54.1,43.3,32.4,24.3,16.5,40,32,15,30.59,30.50,22,5,23,0.00
2013-4-7,70.3,51.8,36.9,35.2,27.3,12.2,79,42,12,30.53,30.35,24,4,24,0.00
2013-4-8,48.0,46.2,44.8,29.3,28.1,26.6,50,49,48,30.38,30.38,4,-165,15,0.00
2013-4-19,37.4,36.1,34.9,24.6,22.7,21.0,65,58,52,30.62,30.56,4,1,4,0.00
2013-4-20,62.1,45.1,30.7,35.8,28.5,22.3,77,54,35,30.65,30.50,17,2,17,0.00
2013-4-21,68.4,47.5,32.5,36.9,28.7,21.4,86,51,25,30.68,30.59,16,3,20,0.00
2013-4-22,51.3,32.1,20.8,39.4,25.1,18.1,96,76,50,30.86,30.53,19,5,23,0.00
2013-4-23,50.2,30.8,16.7,23.7,16.7,8.4,91,60,32,30.80,30.68,11,-4,11,0.00
2013-4-24,69.8,42.0,18.7,29.7,15.2,-14.4,74,40,4,30.77,30.68,13,2,13,0.00
2013-4-25,65.5,45.6,27.9,31.3,20.5,-9.4,56,39,5,30.77,30.56,11,-1,11,0.00
2013-4-26,73.8,55.7,39.0,24.1,6.5,-19.8,49,23,2,30.86,30.62,13,0,13,0.00
2013-4-27,81.7,61.1,38.7,20.8,-2.8,-19.8,44,15,2,30.83,30.65,15,4,15,0.00
2013-4-28,84.2,67.2,50.2,29.5,-9.6,-19.8,32,6,2,30.65,30.50,26,5,30,0.00
2013-4-29,85.3,66.0,46.0,41.4,5.9,-19.8,58,20,2,30.59,30.32,29,0,30,0.00
2013-4-30,61.2,49.2,33.1,41.9,31.8,0.3,98,57,9,30.65,30.32,20,-6,20,0.00
2013-5-1,48.9,33.1,25.5,32.9,26.6,17.6,98,79,47,31.00,30.62,15,5,15,0.30
2013-5-2,64.6,38.2,14.7,31.1,16.7,-10.3,88,50,7,31.15,30.92,6,2,6,0.12
2013-5-3,63.7,45.8,25.9,34.7,25.5,17.2,73,48,26,30.95,30.68,9,2,10,0.00
2013-5-4,64.6,47.8,32.9,36.3,28.4,19.2,71,48,35,30.83,30.68,13,-1,13,0.00
2013-5-5,64.4,47.0,31.8,34.7,26.0,17.1,69,45,29,30.83,30.68,13,0,13,0.00
2013-5-6,69.3,53.3,36.7,38.1,33.0,29.7,86,49,28,30.71,30.56,15,3,15,0.00
2013-5-7,73.8,54.8,41.0,46.8,37.2,27.7,78,53,32,30.68,30.53,17,3,17,0.04
2013-5-8,69.8,51.2,42.1,45.5,40.2,33.6,95,69,36,30.74,30.56,23,4,26,0.16
2013-5-9,61.9,49.5,41.0,44.6,41.1,36.7,94,74,49,30.80,30.68,22,3,22,0.33
2013-5-10,70.3,53.3,38.3,43.7,37.1,32.2,93,58,34,30.89,30.74,25,-4,25,0.00
2013-5-11,69.3,54.4,41.0,45.5,38.1,32.4,74,55,37,30.97,30.80,15,3,17,0.04
2013-5-12,82.6,66.0,45.5,43.5,37.0,31.1,71,36,20,30.86,30.74,14,0,15,0.00
2013-5-13,88.9,73.1,57.7,48.6,37.6,19.0,46,29,8,30.80,30.68,16,-3,20,0.00
2013-5-14,91.0,72.9,59.9,47.5,34.2,-12.3,43,27,2,30.71,30.59,15,4,17,0.00
2013-5-15,88.0,65.5,53.8,50.9,40.3,31.3,82,42,18,30.65,30.56,27,4,28,0.00
2013-5-16,83.1,65.4,51.3,52.2,42.2,31.3,80,47,17,30.62,30.50,26,4,26,0.00
2013-5-17,90.0,69.9,49.6,48.4,26.8,-16.2,67,32,2,30.59,30.44,15,0,15,0.00
2013-5-18,78.3,64.3,50.7,41.5,26.5,-12.3,51,28,4,30.59,30.44,20,5,20,0.00
2013-5-19,71.6,59.9,47.3,39.7,31.3,18.7,51,35,14,30.53,30.44,18,4,18,0.00
2013-5-20,70.3,55.2,45.9,45.7,37.6,27.1,85,53,35,30.65,30.50,24,3,25,0.00
2013-5-21,78.8,57.4,37.9,42.3,28.3,-19.8,86,45,2,30.68,30.50,15,3,15,0.00
2013-5-22,79.3,59.5,40.3,48.4,38.5,27.5,84,49,27,30.71,30.56,13,3,14,0.00
2013-5-23,73.4,56.0,45.7,50.9,46.0,41.7,98,72,44,30.74,30.62,19,-1,19,0.00
2013-5-24,88.2,65.0,43.5,55.0,45.6,17.1,98,58,9,30.65,30.56,12,3,12,0.00
2013-5-25,90.0,69.7,52.5,54.5,42.2,-12.5,88,46,2,30.68,30.56,12,3,12,0.00
2013-5-26,88.5,68.7,54.5,40.8,22.1,-18.0,50,25,2,30.62,30.53,25,3,25,0.00
2013-5-27,86.4,67.8,48.9,43.2,10.4,-19.8,47,20,2,30.56,30.44,20,4,20,0.00
2013-5-28,83.3,64.8,48.4,49.1,36.6,-17.1,64,38,2,30.50,30.30,37,3,37,0.00
2013-5-29,68.9,55.6,45.0,48.9,42.1,30.6,98,63,39,30.41,30.32,17,4,17,0.50
2013-5-30,71.8,59.3,49.3,37.9,20.7,-14.4,43,28,3,30.53,30.32,30,7,31,0.00
2013-5-31,71.2,60.6,50.0,32.0,2.7,-14.4,45,15,3,30.68,30.50,32,8,34,0.00
2013-6-1,75.7,60.1,45.9,43.7,34.4,26.4,51,38,29,30.86,30.62,20,4,23,0.00
2013-6-2,86.0,62.5,38.3,46.0,35.6,26.2,66,40,16,30.83,30.50,12,2,12,0.00
2013-6-3,91.8,72.3,51.8,45.1,8.1,-19.7,42,17,2,30.59,30.44,23,4,38,0.00
2013-6-4,75.2,60.9,50.5,50.4,41.1,21.7,75,50,24,30.83,30.59,29,4,29,0.00
2013-6-5,65.7,51.8,45.9,48.2,43.0,39.2,90,72,50,30.86,30.74,13,3,13,0.00
2013-6-6,84.6,63.6,41.5,52.7,42.0,34.3,95,52,21,30.80,30.68,11,-2,13,0.04
2013-6-7,88.5,66.3,48.6,50.4,42.2,34.7,68,43,25,30.77,30.50,11,-1,12,0.00
2013-6-8,82.8,66.9,53.4,50.4,41.4,34.2,56,40,30,30.71,30.44,21,4,26,0.00
2013-6-9,91.6,71.0,47.8,49.3,35.9,-9.8,74,36,2,30.71,30.62,13,3,17,0.00
2013-6-10,102.0,79.4,59.4,53.6,26.4,-11.2,42,22,2,30.65,30.56,24,4,24,0.00
2013-6-11,99.5,80.1,58.6,50.7,12.0,-19.8,37,15,2,30.68,30.50,25,4,25,0.00
2013-6-12,95.4,75.9,54.9,54.3,9.0,-14.6,65,15,2,30.80,30.65,21,5,23,0.00
2013-6-13,90.9,69.3,55.4,57.7,52.4,43.7,91,59,31,30.80,30.59,14,3,14,0.00
2013-6-14,95.9,75.4,58.6,52.2,30.1,-10.8,61,31,2,30.68,30.56,19,4,24,0.00
2013-6-15,87.1,70.1,52.0,54.5,47.7,41.2,73,47,30,30.74,30.62,20,4,20,0.00
2013-6-16,89.2,69.1,54.0,57.0,47.1,34.3,91,50,21,30.83,30.68,23,4,23,0.00
2013-6-17,86.7,67.8,51.1,54.1,45.6,34.2,70,46,25,30.80,30.68,18,4,20,0.04
2013-6-18,92.1,68.5,52.3,55.6,50.5,41.2,91,58,19,30.80,30.59,17,4,17,0.04
2013-6-19,100.2,74.0,50.7,55.4,26.9,-19.7,93,38,2,30.68,30.41,13,0,13,0.04
2013-6-20,93.4,74.1,52.9,47.3,9.2,-18.2,54,16,2,30.62,30.47,15,-7,15,0.00
2013-6-21,100.2,77.2,56.7,55.0,27.7,-14.6,57,28,2,30.62,30.50,13,4,17,0.00
2013-6-22,91.2,71.4,53.1,54.5,46.3,34.9,70,44,15,30.68,30.47,22,4,23,0.00
2013-6-23,90.7,68.4,49.8,51.8,45.4,37.0,82,47,26,30.71,30.50,16,4,16,0.00
2013-6-24,100.8,75.6,57.2,51.1,15.8,-19.8,59,23,2,30.62,30.47,17,0,19,0.00
2013-6-25,96.3,78.6,59.0,34.7,-2.9,-19.7,29,7,2,30.71,30.50,14,4,19,0.00
2013-6-26,102.9,80.1,58.3,47.1,20.0,-14.3,38,18,2,30.77,30.68,15,3,15,0.00
2013-6-27,101.8,79.7,66.9,44.8,26.8,-8.3,35,20,2,30.89,30.74,13,3,13,0.00
2013-6-28,99.0,76.1,59.2,64.8,51.3,39.7,87,45,27,30.89,30.80,28,4,28,0.25
2013-6-29,91.6,71.4,56.8,59.7,55.1,50.0,94,60,34,30.89,30.74,13,2,13,0.25
2013-6-30,85.5,69.1,61.3,59.2,53.8,49.8,77,60,39,30.86,30.80,13,3,13,0.00
2013-7-1,86.9,67.5,54.1,57.6,52.6,48.0,90,62,34,30.92,30.80,15,0,15,0.00
2013-7-2,90.0,69.7,51.8,56.1,49.9,43.2,91,54,28,30.92,30.77,17,2,21,0.00
2013-7-3,95.0,72.4,53.1,52.9,46.3,39.9,73,43,21,30.77,30.62,17,3,17,0.00
2013-7-4,98.8,77.9,59.5,53.1,44.4,36.3,49,33,14,30.68,30.62,13,3,19,0.00
2013-7-5,95.7,73.2,62.6,57.4,50.1,41.9,59,45,28,30.65,30.56,17,3,21,0.00
2013-7-6,101.1,78.2,61.7,56.1,49.5,44.4,77,39,16,30.68,30.56,25,4,25,0.04
2013-7-7,94.3,76.2,63.9,59.0,52.1,44.8,72,45,27,30.74,30.62,18,0,18,0.00
2013-7-8,97.9,76.9,60.1,60.3,50.7,37.0,83,45,18,30.77,30.68,26,0,28,0.00
2013-7-9,101.7,80.4,63.3,53.4,34.9,-11.2,41,25,2,30.86,30.74,18,3,18,0.00
2013-7-10,97.7,75.9,57.7,63.1,52.9,42.6,74,47,26,30.89,30.68,13,0,13,0.00
2013-7-11,105.3,81.1,58.3,59.2,49.7,-3.6,81,41,2,30.80,30.59,27,5,27,0.00
2013-7-12,94.8,75.2,67.1,61.5,52.0,41.7,81,47,28,30.74,30.62,17,3,21,0.04
2013-7-13,97.2,73.8,60.4,62.2,57.3,50.4,93,61,28,30.83,30.71,13,3,13,0.00
2013-7-14,88.9,70.8,57.6,63.5,57.7,51.6,93,66,35,30.86,30.74,13,4,15,0.00
2013-7-15,85.6,69.5,61.0,68.4,60.4,50.5,98,76,44,30.86,30.74,20,0,20,0.38
2013-7-16,90.5,69.8,52.3,56.1,49.8,44.4,96,54,28,30.86,30.74,15,3,15,0.00
2013-7-17,95.9,74.5,55.0,59.0,53.1,45.1,92,53,22,30.86,30.74,13,3,13,0.00
2013-7-18,99.3,72.7,61.0,60.3,54.0,46.4,87,56,26,30.86,30.74,21,4,26,0.29
2013-7-19,88.7,71.5,60.1,62.1,56.8,52.7,86,62,36,30.83,30.74,15,3,15,0.04
2013-7-20,92.3,71.0,57.2,66.7,55.5,48.6,94,62,32,30.77,30.65,26,-1,26,0.33
2013-7-21,91.0,71.2,55.4,62.2,54.6,46.2,95,59,34,30.68,30.59,17,3,17,0.00
2013-7-22,96.4,78.9,59.0,58.3,49.8,37.2,69,38,18,30.71,30.59,15,3,15,0.00
2013-7-23,96.3,77.6,63.0,56.8,44.2,-19.8,61,34,2,30.83,30.62,18,2,18,0.00
2013-7-24,92.3,71.8,61.2,62.2,54.5,44.1,77,57,33,30.86,30.68,26,1,26,0.00
2013-7-25,79.0,65.4,56.5,59.0,54.7,50.2,92,70,44,30.89,30.74,19,-2,19,0.04
2013-7-26,91.0,70.8,56.5,56.5,50.1,40.8,85,51,27,30.92,30.80,17,3,17,0.00
2013-7-27,83.7,65.4,54.1,59.9,52.7,45.5,96,66,40,30.83,30.71,15,3,15,0.04
2013-7-28,73.6,61.8,57.2,62.6,58.2,55.9,98,89,59,30.77,30.62,12,2,12,0.13
2013-7-29,79.2,63.7,56.1,62.6,54.9,45.3,98,76,35,30.83,30.62,12,2,12,0.08
2013-7-30,92.8,72.5,58.8,55.8,51.5,48.0,81,50,29,30.89,30.80,16,-1,16,0.68
2013-7-31,94.1,72.8,56.5,55.4,50.2,41.4,74,48,24,30.95,30.80,13,3,14,0.68
2013-8-1,92.3,73.9,55.8,59.2,51.3,45.3,82,48,24,30.86,30.65,15,3,16,0.00
2013-8-2,99.9,75.4,58.1,61.7,52.9,45.1,80,49,18,30.74,30.65,11,3,13,0.04
2013-8-3,95.4,71.2,59.5,63.5,57.0,49.6,92,65,31,30.89,30.71,30,4,30,0.04
2013-8-4,93.9,71.9,54.5,59.4,51.4,46.2,90,52,21,30.83,30.74,16,2,16,0.04
2013-8-5,92.3,72.5,60.4,53.4,47.9,41.2,63,43,27,30.77,30.68,13,3,14,0.00
2013-8-6,95.2,72.1,57.2,54.0,45.5,37.4,58,40,22,30.74,30.62,23,-1,23,0.00
2013-8-7,80.2,65.7,56.3,57.6,51.3,43.9,96,61,43,30.80,30.68,14,4,17,0.00
2013-8-8,82.4,64.9,54.5,59.2,55.1,49.1,98,73,45,30.83,30.68,21,3,21,0.00
2013-8-9,83.5,65.9,51.6,52.9,48.0,41.9,88,56,32,30.86,30.74,17,3,17,0.00
2013-8-10,91.2,70.9,50.7,53.2,45.4,39.6,83,44,20,30.86,30.74,13,4,17,0.00
2013-8-11,87.3,70.8,58.3,54.0,46.2,40.5,85,43,28,30.86,30.77,13,3,22,0.13
2013-8-12,86.4,65.8,52.3,57.7,51.7,43.5,97,64,31,30.89,30.77,19,3,19,0.25
2013-8-13,80.4,65.7,53.1,53.1,47.3,43.0,82,53,33,30.86,30.77,17,-4,17,0.05
2013-8-14,87.8,66.1,50.9,56.1,49.3,43.0,97,59,26,30.86,30.74,19,3,23,0.16
2013-8-15,91.0,68.9,52.5,54.3,46.6,40.3,74,47,28,30.86,30.74,9,2,12,0.00
2013-8-16,95.4,74.5,54.5,53.1,38.9,-9.2,62,37,2,30.86,30.77,11,-2,14,0.00
2013-8-17,97.2,75.7,58.3,54.1,33.6,-13.7,59,31,2,30.83,30.68,10,2,10,0.00
2013-8-18,99.0,75.1,57.9,53.4,39.5,-9.4,42,30,2,30.83,30.71,18,3,19,0.00
2013-8-19,100.4,78.0,59.4,52.2,33.9,-9.9,48,28,2,30.80,30.68,13,3,13,0.00
2013-8-20,102.6,79.7,62.6,50.4,29.1,-11.2,37,23,2,30.74,30.65,15,3,15,0.00
2013-8-21,97.9,77.9,66.0,51.8,45.0,36.7,52,32,19,30.83,30.71,22,3,22,0.00
2013-8-22,87.8,71.6,58.5,61.9,53.4,48.6,83,54,35,30.86,30.74,12,3,13,0.00
2013-8-23,91.2,72.8,58.6,59.0,52.5,44.8,87,52,31,30.83,30.62,17,-1,17,0.00
2013-8-24,93.9,74.0,58.6,55.2,48.2,42.1,65,42,27,30.80,30.68,20,-1,20,0.00
2013-8-25,96.3,76.4,59.5,54.1,47.7,42.1,57,38,19,30.83,30.74,15,2,15,0.00
2013-8-26,98.4,76.1,61.7,57.6,52.1,48.0,64,45,26,30.83,30.74,17,3,17,0.00
2013-8-27,99.0,78.8,60.8,57.4,52.4,47.3,67,43,26,30.83,30.71,14,3,14,0.00
2013-8-28,102.4,79.3,62.4,56.3,47.0,37.2,53,34,18,30.80,30.74,12,-2,13,0.00
2013-8-29,101.7,80.7,64.9,52.9,40.3,-3.5,40,28,2,30.86,30.74,19,3,19,0.00
2013-8-30,100.0,78.3,63.3,55.0,46.5,39.9,47,34,18,30.86,30.77,17,3,17,0.00
2013-8-31,97.7,75.9,62.6,54.3,47.0,42.1,58,37,19,30.80,30.74,17,4,22,0.00
2013-9-1,84.2,69.6,59.4,59.0,52.8,45.5,82,56,42,30.86,30.74,13,-1,15,0.00
2013-9-2,96.3,74.5,55.8,60.3,52.5,40.8,91,52,23,30.80,30.68,14,2,14,0.00
2013-9-3,103.1,78.3,61.9,62.6,50.9,42.4,83,42,18,30.83,30.71,20,4,20,0.04
2013-9-4,98.6,75.6,62.4,58.6,51.5,46.6,69,46,23,30.86,30.77,15,1,15,0.08
2013-9-5,98.4,76.8,61.3,57.9,51.7,45.5,73,44,26,30.86,30.77,11,2,13,0.00
2013-9-6,104.7,80.4,66.7,56.5,46.6,34.9,47,32,10,30.86,30.74,16,3,16,0.00
2013-9-7,99.7,79.4,61.0,54.5,46.2,38.8,52,33,16,30.80,30.68,11,2,11,0.00
2013-9-8,93.7,74.6,59.7,51.1,43.7,39.0,50,34,20,30.74,30.56,9,-10,9,0.00
2013-9-9,88.7,67.8,58.3,63.3,53.3,44.8,98,64,31,30.74,30.62,21,-499,21,0.49
2013-9-10,68.0,59.9,56.7,59.0,57.0,55.2,98,90,68,30.83,30.68,10,-314,10,0.82
2013-9-11,63.0,59.6,57.6,61.3,58.8,57.0,98,97,92,30.86,30.80,11,-66,13,1.03
2013-9-12,62.2,59.3,57.7,61.7,58.7,57.0,98,98,98,30.92,30.80,13,5,17,3.11
2013-9-13,78.1,62.8,57.0,63.1,58.1,54.7,98,86,50,30.83,30.59,9,-6,11,1.37
2013-9-14,78.6,64.0,53.1,59.5,55.2,47.8,98,76,39,30.71,30.56,13,-1,13,0.00
2013-9-15,60.1,55.8,51.8,56.5,54.0,51.3,98,94,82,30.89,30.68,17,3,17,1.36
2013-9-16,73.8,60.4,51.3,59.0,54.5,50.7,98,83,53,30.86,30.71,11,-2,11,0.42
2013-9-17,85.1,67.6,51.6,56.7,48.9,42.6,97,55,29,30.74,30.53,15,-5,15,0.00
2013-9-18,87.1,68.9,57.9,51.4,43.4,37.6,58,41,29,30.59,30.50,25,-13,25,0.00
2013-9-19,69.3,57.6,48.0,48.4,42.8,38.5,92,60,40,30.83,30.59,11,2,11,0.04
2013-9-20,75.0,58.0,43.7,47.8,43.3,40.1,95,62,33,30.80,30.68,11,-2,11,0.00
2013-9-21,85.1,63.9,47.1,50.4,43.8,37.9,78,51,26,30.71,30.50,10,-10,11,0.00
2013-9-22,81.0,64.1,54.0,50.7,44.3,37.2,83,51,32,30.53,30.32,15,-9,15,0.00
2013-9-23,69.6,58.3,50.0,51.1,37.9,27.1,98,51,27,30.71,30.27,24,-175,25,0.29
2013-9-24,78.1,60.7,44.2,44.2,36.3,26.4,67,42,26,30.74,30.56,10,-431,13,0.00
2013-9-25,84.7,61.8,44.6,50.2,39.7,32.5,68,47,20,30.53,30.27,11,-205,11,0.00
2013-9-26,71.2,56.5,44.8,45.9,42.3,38.3,87,62,39,30.50,30.32,0,-999,0,0.00
2013-9-27,54.1,46.0,39.4,51.6,44.8,38.8,98,96,79,30.65,30.41,0,-999,0,0.29
2013-9-28,70.9,52.0,35.6,41.5,32.2,22.3,98,49,27,30.77,30.62,0,-999,0,0.04
2013-9-29,78.4,59.6,41.7,43.3,23.7,-14.3,59,33,3,30.74,30.56,13,-587,13,0.00
2013-9-30,85.5,66.0,54.0,50.7,33.2,-5.3,44,31,6,30.62,30.50,12,-59,13,0.00
2013-10-1,74.3,60.7,49.6,46.6,37.3,26.1,70,43,25,30.74,30.56,12,-105,12,0.00
2013-10-2,78.4,60.4,46.8,45.3,38.9,31.1,75,47,24,30.65,30.56,11,-104,11,0.00
2013-10-3,67.6,51.3,38.7,48.7,40.4,33.6,98,70,43,30.62,30.44,13,3,17,0.17
2013-10-4,49.8,38.2,28.6,43.5,30.6,18.5,98,76,43,30.77,30.44,23,6,23,0.42
2013-10-5,66.4,45.6,28.6,27.7,9.9,-12.3,85,38,4,30.80,30.68,18,-1,20,0.00
2013-10-6,70.9,53.3,37.2,38.3,24.2,-11.6,58,34,8,30.86,30.74,11,3,11,0.00
2013-10-7,77.9,57.7,38.8,42.3,32.7,24.1,57,41,21,30.80,30.56,9,2,9,0.00
2013-10-8,80.6,61.6,48.9,43.5,29.1,-17.7,50,33,2,30.59,30.44,11,-18,11,0.00
2013-10-9,68.7,53.7,45.9,43.0,36.0,27.3,79,52,38,30.65,30.50,11,-1,12,0.00
2013-10-10,63.5,49.2,41.0,49.1,41.7,30.4,97,77,49,30.62,30.24,23,2,26,0.00
2013-10-11,62.1,52.2,40.5,38.1,31.2,27.0,78,46,35,30.68,30.21,23,1,23,0.00
2013-10-12,61.2,45.6,38.3,41.4,36.9,33.8,89,73,45,30.77,30.68,9,-1,9,0.00
2013-10-13,66.7,48.6,34.5,43.9,38.6,33.3,97,72,43,30.74,30.53,10,2,10,0.00
2013-10-14,56.1,45.9,39.4,44.4,36.2,31.1,90,69,46,30.74,30.44,13,-5,13,0.00
2013-10-15,50.0,38.3,32.5,33.1,27.2,22.6,86,65,45,30.86,30.74,13,4,13,0.00
2013-10-16,58.3,39.8,25.3,36.7,26.6,21.7,98,62,37,30.77,30.62,10,2,10,0.00
2013-10-17,50.7,39.9,33.3,32.4,26.7,20.8,88,60,48,30.74,30.62,13,-1,13,0.00
2013-10-18,55.6,37.8,28.4,37.2,28.2,22.8,98,72,42,30.77,30.68,13,3,13,0.16
2013-10-19,69.1,52.1,30.2,35.1,21.1,-11.9,85,34,4,30.71,30.56,19,5,19,0.00
2013-10-20,54.1,40.7,32.2,36.9,29.1,17.1,98,69,23,30.71,30.50,13,3,15,0.17
2013-10-21,64.2,45.7,28.6,35.1,28.8,23.0,94,56,29,30.77,30.68,14,3,14,0.00
2013-10-22,67.3,50.4,35.4,37.2,29.5,21.6,65,45,33,30.80,30.71,13,-1,13,0.00
2013-10-23,67.6,50.8,38.5,37.9,30.5,22.6,66,46,33,30.80,30.68,12,3,12,0.00
2013-10-24,62.2,43.6,34.0,40.8,34.6,30.2,98,73,45,30.83,30.74,9,3,9,0.00
2013-10-25,74.1,50.7,33.6,42.4,32.3,25.3,90,55,22,30.83,30.71,13,-9,13,0.00
2013-10-26,64.8,48.9,36.0,38.1,30.2,22.6,67,49,35,30.92,30.74,12,-1,12,0.00
2013-10-27,74.5,56.7,38.1,33.8,14.2,-19.8,65,28,2,30.74,30.50,12,3,15,0.00
2013-10-28,52.3,36.5,30.2,33.8,30.0,24.4,98,82,36,30.65,30.50,17,0,17,0.04
2013-10-29,36.0,32.7,30.4,34.2,31.6,29.8,98,96,84,30.62,30.50,8,2,10,0.08
2013-10-30,54.1,37.3,28.6,38.7,31.2,18.3,98,81,43,30.53,30.44,20,-6,20,0.25
2013-10-31,54.7,44.5,33.3,26.4,19.7,15.8,54,37,26,30.56,30.44,34,0,34,0.00
2013-11-1,59.5,42.7,30.7,33.8,23.7,-6.2,72,49,9,30.80,30.53,17,4,17,0.00
2013-11-2,67.6,43.2,27.0,37.6,22.5,-10.7,70,47,7,30.77,30.41,9,2,9,0.00
2013-11-3,69.6,49.6,34.9,32.7,17.4,-12.3,75,35,4,30.47,30.27,22,4,22,0.00
2013-11-4,42.8,34.1,29.1,31.1,20.1,14.4,98,59,40,30.62,30.44,19,-2,19,0.00
2013-11-5,49.5,33.9,22.5,25.2,9.4,-16.1,72,42,8,30.74,30.50,25,5,25,0.00
2013-11-6,53.2,40.5,23.9,20.8,12.6,-3.6,43,33,11,30.89,30.65,30,7,30,0.00
2013-11-7,62.1,42.3,27.3,31.6,21.5,12.9,62,44,29,30.92,30.62,13,3,13,0.00
2013-11-8,68.5,50.8,36.7,26.2,12.6,-11.9,50,27,4,30.65,30.44,23,4,26,0.00
2013-11-9,53.6,42.2,35.4,29.8,22.2,12.9,70,48,20,30.74,30.65,12,4,13,0.00
2013-11-10,43.0,41.7,40.6,27.1,25.6,24.3,55,52,47,31.48,31.45,0,-999,0,0.00
2013-11-11,63.1,43.9,34.3,37.2,27.2,21.4,72,53,35,31.77,31.45,0,-999,0,0.00